Wind_Speed
52 53 51 48 46 45 45 42 38 35 35 35 35 34 33 32 31 30 27 24 26 27 27 28 30 31 31 29 29 30 33 35 35 34 32 31 30 29 27 25 24 23 23 22 22 23 24 24 24 23 23 23 22 21 20 20 19 17 17 16 14 12 11 9 8 8 9 9 8 9 9 10 10 9 9 9 8 9 11 12 14 15 15 17 19
55 56 54 50 48 47 46 43 38 33 33 34 35 34 32 31 30 29 27 24 25 26 27 28 30 31 30 28 28 29 32 34 35 33 32 31 31 30 28 26 24 24 24 23 23 24 25 25 24 23 23 22 21 20 21 20 19 17 17 16 14 12 10 9 9 9 9 9 9 9 10 10 10 10 9 9 9 9 10 11 13 14 14 15 16
57 56 55 52 50 48 45 42 38 33 31 33 35 33 31 30 28 27 26 24 24 26 26 28 30 30 29 28 28 29 32 34 34 33 32 30 30 30 29 27 25 24 24 24 25 25 25 25 24 23 22 22 21 21 21 20 18 18 17 16 14 12 11 10 10 10 9 9 9 9 10 11 12 12 11 10 9 9 9 10 11 12 13 14 14
57 56 55 53 51 47 44 41 37 32 29 32 34 32 30 28 26 26 25 24 24 26 26 28 30 30 29 28 28 29 32 34 34 33 32 30 30 30 29 28 26 24 23 24 25 25 25 24 24 23 22 21 21 21 20 18 18 18 18 16 14 13 12 11 11 11 10 10 9 9 9 10 11 13 13 13 12 11 11 11 11 12 12 13 14
56 55 54 53 51 46 42 39 34 30 28 31 33 31 30 27 26 25 24 24 24 25 26 27 30 31 30 29 28 28 32 34 34 33 32 30 30 29 29 29 27 25 24 24 24 25 24 23 23 23 22 21 21 20 19 18 18 18 17 16 14 13 13 12 12 11 11 11 11 11 11 11 11 12 13 14 15 15 15 15 15 15 15 15 15
52 52 52 51 49 44 39 35 32 29 27 29 31 31 29 27 26 25 24 24 24 25 26 27 30 31 30 29 28 29 32 34 33 33 32 31 29 29 29 29 28 26 26 25 25 25 24 23 23 23 22 21 20 20 18 18 18 18 17 16 15 14 13 13 12 12 12 12 13 13 13 13 13 13 13 14 16 17 17 18 18 18 19 18 18
46 45 45 44 42 40 36 32 30 28 26 28 30 30 28 27 26 24 23 23 24 26 26 28 30 31 31 29 28 29 33 34 33 33 32 31 30 29 29 29 29 28 27 26 26 26 24 23 23 22 21 21 20 19 19 18 18 18 18 17 15 14 13 13 12 12 12 13 13 13 14 14 14 14 15 16 16 17 18 19 20 20 20 21 21
41 39 39 39 38 37 34 30 27 26 26 28 28 28 28 27 26 24 23 23 25 27 27 28 30 31 31 29 27 30 33 34 34 34 33 32 31 29 29 29 29 28 27 26 26 26 25 23 23 22 21 21 21 20 19 19 19 19 18 17 16 15 15 14 12 12 12 13 13 13 14 14 15 16 16 16 17 18 19 19 20 21 21 22 22
43 42 42 40 37 35 32 28 25 25 27 27 26 27 28 27 25 24 24 23 25 28 28 30 30 31 31 28 28 30 32 34 35 35 34 33 32 30 30 30 29 29 27 26 26 27 25 24 22 22 22 22 22 21 21 20 20 19 18 18 17 17 16 14 13 14 15 15 15 14 14 14 15 15 16 16 18 19 20 20 21 21 22 22 23
44 41 39 38 35 32 29 26 25 26 26 25 25 28 29 28 26 25 24 24 26 28 29 31 31 31 31 28 28 31 32 34 36 36 35 34 33 32 31 31 30 29 28 27 27 27 26 25 23 23 23 23 23 22 22 22 21 20 19 19 18 18 18 16 15 17 18 18 17 17 17 18 17 17 17 18 19 20 20 21 22 22 23 23 24
41 38 36 35 32 29 26 24 24 26 26 25 27 30 30 27 25 25 24 24 26 29 30 32 31 30 30 27 28 31 33 35 37 36 35 34 33 32 31 31 30 29 29 28 27 27 27 26 25 23 23 23 22 22 22 22 22 21 21 20 18 18 19 17 17 19 20 20 20 20 21 22 22 22 21 21 22 22 21 22 22 23 24 24 25
38 37 36 34 32 28 23 22 23 26 26 26 28 31 29 26 25 25 24 24 27 30 32 32 31 30 30 27 28 30 33 36 37 36 35 34 33 31 31 32 31 30 29 29 28 28 28 28 26 24 23 23 21 20 21 21 20 20 19 18 17 17 18 18 19 20 21 21 21 22 24 24 25 25 24 24 24 24 24 24 24 25 26 27 27
34 35 34 34 33 28 22 21 23 25 26 26 29 29 27 25 25 25 25 25 28 31 32 32 30 30 30 28 28 30 34 37 37 35 35 34 32 31 32 33 32 31 31 30 29 29 29 28 27 25 23 22 20 20 20 19 19 19 18 18 18 18 19 19 20 20 21 21 21 23 24 25 25 25 25 25 26 26 26 26 27 28 28 29 30
29 29 29 29 29 26 23 22 24 26 26 26 27 27 26 26 25 25 25 26 29 31 32 31 30 30 30 29 29 31 35 37 37 35 35 34 32 30 30 32 32 32 32 30 30 30 30 29 28 26 24 22 21 20 19 19 18 18 17 18 19 19 20 20 20 20 20 21 22 24 25 25 25 25 26 26 26 27 27 27 28 29 29 29 30
27 26 26 26 27 26 25 23 24 27 27 26 27 27 28 27 25 24 26 28 30 32 31 30 30 30 30 30 30 32 36 38 37 35 35 34 32 30 29 30 32 32 32 31 31 31 31 30 29 28 25 23 22 20 20 19 18 17 18 19 20 20 21 21 21 21 21 22 24 25 26 26 26 26 26 25 26 27 27 27 27 28 28 29 29
29 27 28 28 28 27 25 23 25 28 27 27 28 28 28 27 25 24 26 29 32 32 30 30 31 30 29 31 32 33 36 38 37 35 34 32 31 30 29 29 30 31 31 31 31 32 32 31 30 29 26 24 23 21 20 19 19 19 20 21 22 22 22 22 22 23 24 25 26 27 27 27 27 27 26 25 25 25 26 26 26 26 27 27 28
29 26 28 30 28 27 25 24 26 28 27 27 28 29 29 28 26 25 25 28 32 32 30 30 30 29 30 33 34 33 36 38 36 35 33 31 30 29 29 29 29 29 30 31 32 32 32 32 31 29 27 25 24 22 21 20 21 21 22 23 23 23 23 23 24 25 26 27 27 27 27 28 29 28 27 25 24 24 24 24 24 24 25 26 26
26 22 24 27 26 26 26 26 27 28 28 27 28 30 31 29 28 27 26 28 32 31 30 30 30 29 31 34 35 34 36 37 35 34 32 30 28 28 28 28 28 29 29 30 32 32 33 32 32 30 28 27 26 24 22 22 23 24 24 24 25 25 25 25 26 26 27 27 27 28 28 29 29 28 26 24 23 23 23 23 23 23 24 24 25
24 20 21 24 26 27 28 28 29 29 28 28 28 30 30 29 29 28 27 30 33 32 30 31 30 30 32 36 36 35 35 35 35 34 31 29 27 26 26 27 27 28 29 30 31 32 32 32 31 30 29 28 27 25 23 24 25 26 26 27 28 27 27 27 27 27 27 27 27 28 29 29 28 27 26 24 22 22 22 23 23 24 24 24 24
26 21 21 24 27 29 31 31 30 29 28 28 28 28 28 29 30 29 29 32 34 32 31 31 30 31 34 37 37 35 34 34 34 34 31 29 27 25 26 26 27 28 29 30 30 31 31 31 31 30 30 29 27 25 24 25 26 27 29 29 29 28 27 27 27 27 27 27 28 28 29 29 28 27 25 24 23 22 22 23 23 24 24 24 25
27 22 22 25 28 31 31 31 30 29 28 28 28 29 30 31 31 30 30 33 34 32 33 33 31 32 35 37 36 35 34 34 35 35 32 30 27 26 26 27 28 28 29 30 30 30 30 30 30 30 29 28 26 25 25 25 27 28 30 30 29 28 28 28 27 27 27 27 28 28 29 29 28 26 25 24 23 22 22 22 22 23 23 24 24
26 23 23 24 28 32 32 31 31 29 28 28 29 31 32 31 30 29 29 31 32 33 34 33 31 33 36 37 36 35 34 34 35 35 33 31 28 27 28 29 29 29 30 31 30 30 30 29 29 29 28 26 25 25 25 26 28 29 30 30 29 28 28 27 27 27 27 27 28 28 29 28 27 26 24 23 22 21 22 22 22 22 23 25 26
30 27 27 26 29 32 32 32 33 31 30 30 30 31 32 30 30 30 29 29 32 34 35 33 32 34 37 37 36 36 35 34 36 36 34 32 30 30 30 30 30 31 31 32 31 30 29 29 28 27 27 26 25 25 26 27 29 29 30 30 28 27 27 27 27 27 27 27 28 29 29 27 26 25 25 23 22 22 22 23 25 26 28 29 31
35 30 28 29 34 35 32 32 34 34 35 35 34 34 34 35 35 33 31 30 31 34 34 33 34 36 37 37 36 36 36 35 36 37 36 33 32 31 32 31 31 32 32 33 32 31 29 28 27 27 26 25 25 25 26 27 28 29 29 28 26 26 26 26 26 27 27 27 28 29 28 26 25 25 25 24 23 23 25 26 28 30 31 33 34
38 36 33 32 35 36 32 31 32 34 36 37 37 38 38 39 39 36 33 32 32 33 34 33 35 37 38 38 37 37 38 36 36 38 37 34 33 32 33 32 32 32 33 33 33 32 30 28 26 26 25 25 25 26 26 27 27 27 26 25 25 25 25 26 26 26 27 28 28 28 26 25 25 26 26 24 23 24 26 28 30 31 33 34 36
37 38 40 40 40 38 35 32 31 33 35 37 39 40 40 41 40 37 35 34 34 33 33 34 36 37 38 38 38 38 39 37 37 38 38 35 33 33 34 33 32 33 33 34 33 32 31 28 26 26 25 25 25 26 26 26 27 26 26 25 24 24 25 25 26 27 27 27 27 26 25 25 26 27 27 26 25 25 27 29 31 33 34 36 38
40 40 42 44 45 44 43 39 37 35 36 38 40 41 41 41 39 38 36 35 35 35 36 36 36 35 36 37 38 39 39 38 38 39 38 35 33 34 35 34 33 33 33 34 34 33 31 29 27 26 25 25 26 26 26 27 27 27 26 25 25 24 24 25 26 26 26 26 26 25 25 26 27 27 27 27 27 28 28 30 32 34 36 38 41
39 43 45 45 45 44 45 44 43 42 41 40 40 40 40 40 39 39 38 37 37 38 37 35 33 33 33 35 38 39 39 39 39 39 37 34 33 35 35 34 33 33 33 34 34 33 32 30 28 27 26 26 26 27 28 29 29 29 27 25 24 23 24 26 26 26 26 26 27 27 27 28 28 29 29 29 29 29 30 31 33 35 38 40 42
32 36 40 42 42 40 40 41 43 44 44 42 38 36 36 36 37 38 38 37 37 37 35 32 31 31 31 34 37 39 40 39 39 39 35 33 33 35 35 34 33 33 32 33 34 33 31 30 28 27 26 26 26 27 29 31 31 29 26 23 22 23 24 26 27 27 28 28 29 30 30 31 31 31 31 30 31 31 33 34 35 37 39 41 43
30 33 36 38 39 39 38 38 40 42 42 40 36 32 32 32 33 33 34 34 34 34 32 31 31 31 32 35 38 40 41 40 39 36 34 33 34 35 35 34 33 32 32 32 34 33 31 29 28 27 26 26 27 29 31 32 31 28 25 22 22 23 25 26 28 29 29 30 32 33 33 34 34 33 33 33 33 34 35 36 37 39 40 42 44
30 35 39 40 39 39 39 38 38 40 40 38 35 31 31 30 30 30 30 31 31 32 32 32 32 33 35 39 40 41 40 39 37 34 33 34 35 36 35 35 34 32 31 32 34 33 31 29 28 28 27 27 28 30 32 32 31 28 26 24 23 24 25 27 29 30 31 32 33 34 35 35 35 34 34 34 34 35 36 37 39 40 43 45 47
32 34 38 40 39 37 38 39 39 40 39 38 35 31 30 30 30 30 31 31 32 33 33 34 34 35 39 41 40 40 38 37 35 34 34 36 36 37 36 35 34 32 31 32 33 33 31 29 28 28 28 28 29 31 32 32 31 29 28 27 26 25 26 27 29 31 32 32 33 35 35 35 34 34 34 34 35 36 37 39 41 43 46 48 51
35 36 35 38 39 35 35 37 38 40 40 38 36 33 32 32 32 33 33 34 35 35 35 35 36 39 42 41 39 37 35 35 35 35 36 37 38 38 36 35 34 32 31 32 33 33 32 30 30 30 30 30 30 31 32 32 31 30 29 29 28 27 27 28 29 30 31 32 35 36 36 35 34 34 35 35 37 38 40 42 44 47 50 53 56
36 36 35 39 39 36 35 36 37 38 39 37 36 35 35 35 35 35 36 37 37 36 36 37 41 42 41 38 37 35 34 35 36 37 38 39 39 39 36 35 33 31 31 31 32 32 33 32 31 30 31 31 31 32 32 32 31 31 31 30 30 29 30 30 30 30 31 34 37 37 35 34 34 35 36 38 40 42 43 46 48 51 54 57 60
38 34 34 39 41 39 38 38 37 39 39 39 38 39 40 40 40 39 39 38 37 37 39 42 43 41 38 37 36 34 34 36 38 39 39 40 41 39 37 35 32 30 30 31 31 32 33 32 31 30 30 31 32 32 33 33 32 32 32 31 31 31 31 32 33 33 34 36 37 35 34 34 36 37 39 41 44 45 47 50 52 55 57 60 63
43 38 36 41 44 43 43 42 41 40 41 42 43 44 44 44 44 41 38 38 40 42 43 43 40 38 36 37 36 35 35 37 39 40 40 41 41 40 38 35 32 31 30 30 30 31 30 30 29 28 29 30 32 32 33 33 33 33 33 33 33 33 33 34 34 34 35 35 35 35 35 37 39 41 43 46 48 49 51 53 55 58 60 62 65
46 45 42 43 44 45 47 47 47 45 44 45 46 47 47 46 45 42 40 41 43 43 41 39 37 36 36 37 36 36 37 38 39 40 41 42 41 39 37 35 34 32 30 30 30 29 28 28 27 27 28 29 30 32 32 33 34 33 33 34 34 34 34 33 33 33 34 35 36 37 39 41 43 45 47 49 51 53 54 56 58 60 62 65 68
46 46 46 45 44 45 47 48 49 50 48 45 45 47 48 47 45 43 41 42 41 39 37 36 36 35 36 37 38 39 40 40 40 41 42 42 41 39 37 36 35 34 32 31 31 29 27 26 27 27 28 29 30 31 32 33 34 34 34 34 34 34 33 33 34 35 36 37 39 41 43 44 46 48 50 53 54 56 57 58 60 63 65 67 70
46 48 47 44 44 46 47 47 48 50 47 42 40 41 43 44 43 40 39 39 38 37 36 35 35 36 37 39 40 41 41 40 41 41 42 43 41 39 38 37 37 36 35 33 32 30 28 28 28 27 28 29 30 31 32 33 34 35 35 35 35 35 36 36 37 38 39 40 42 44 46 47 49 51 54 56 57 58 59 61 63 65 68 70 73
46 51 51 46 44 47 47 46 47 48 48 44 41 40 40 39 39 38 38 38 37 36 36 36 37 39 40 41 41 42 41 41 41 42 42 42 40 39 39 38 38 38 37 35 33 32 31 31 31 30 30 30 31 32 34 34 35 36 36 37 37 37 39 40 40 41 42 43 45 46 48 50 51 54 56 58 61 61 62 64 67 69 72 74 76
44 51 54 50 47 48 48 49 51 51 52 51 48 44 41 39 38 38 38 39 38 38 39 40 40 41 42 42 42 42 42 42 42 41 41 40 39 39 40 40 40 40 38 37 36 35 34 34 34 34 33 33 34 35 37 38 38 38 38 40 40 40 42 43 43 43 44 45 47 48 50 52 54 56 58 60 63 64 66 68 71 73 76 77 79
43 47 54 55 54 53 53 53 56 56 55 55 51 46 44 43 42 41 41 41 42 42 43 43 43 43 44 43 42 42 42 42 41 41 41 40 39 40 40 41 42 41 39 39 39 39 38 38 37 37 37 37 38 39 41 42 43 42 42 43 44 44 45 46 47 47 47 48 49 51 54 56 57 58 61 63 65 68 70 73 75 77 78 80 81
45 45 51 56 59 59 58 55 55 54 53 51 49 47 47 46 45 44 44 44 44 44 45 45 45 44 43 42 41 41 42 43 42 41 42 41 41 41 41 42 43 42 41 41 42 42 42 41 40 41 41 42 43 44 45 46 47 47 46 47 48 49 49 49 50 51 51 51 52 53 57 59 59 61 63 66 68 72 75 77 78 80 81 82 85
48 47 49 53 56 57 57 54 52 51 50 50 49 48 47 46 46 48 49 48 46 46 47 46 44 43 42 42 43 43 44 44 43 43 43 42 42 42 43 44 44 43 42 43 44 45 45 44 44 44 45 46 46 48 50 50 50 50 50 50 52 53 52 52 53 55 55 55 55 56 59 62 63 64 66 69 73 76 78 80 82 84 85 87 89
49 50 50 51 53 54 53 52 51 52 52 52 51 50 47 47 49 52 54 53 52 51 50 48 46 45 45 46 46 46 46 45 44 44 44 45 44 43 44 46 46 44 44 45 46 47 47 47 47 48 49 49 50 51 53 54 54 53 53 54 56 56 56 56 56 57 58 59 59 59 61 65 67 68 70 74 77 79 81 84 86 88 90 92 95
50 51 51 51 52 52 51 52 53 54 54 54 55 54 53 52 52 52 53 53 53 52 52 51 50 49 49 49 48 47 47 47 46 45 46 47 46 46 46 47 47 46 47 48 49 50 50 50 50 51 52 52 53 54 56 56 57 57 57 58 59 59 59 58 58 60 61 62 63 63 64 68 72 73 75 78 81 82 85 87 90 93 94 97 100
52 54 52 52 52 51 52 53 54 55 56 56 55 54 54 54 51 50 51 52 53 54 54 53 52 51 51 50 49 49 48 47 47 47 48 49 48 48 48 48 48 49 49 51 53 53 53 52 53 54 55 55 57 58 59 59 60 60 60 61 62 61 60 60 60 62 64 65 67 68 69 72 76 78 79 81 84 86 89 91 93 96 98 101 105
53 55 54 54 54 54 54 55 56 56 57 57 55 54 53 52 52 52 54 55 56 55 55 54 53 51 51 51 51 50 50 49 48 49 50 51 50 49 49 49 50 51 52 54 56 56 56 55 55 56 57 58 60 61 62 62 62 63 64 65 64 63 61 61 62 64 66 68 71 72 73 75 79 81 82 84 86 88 91 94 96 98 101 105 108
53 56 56 56 56 55 55 56 57 58 58 59 58 57 57 56 55 57 58 57 57 57 56 56 56 54 54 53 53 52 51 50 50 50 52 52 52 52 52 52 53 54 55 57 58 58 58 58 58 58 60 61 62 63 64 64 65 66 67 66 64 63 62 63 64 66 69 71 74 77 77 78 81 82 83 86 88 90 93 96 98 101 105 109 109
54 57 59 58 57 56 56 58 59 60 61 61 60 60 61 61 61 62 62 60 59 60 60 61 60 59 58 56 56 56 55 54 53 53 53 54 55 55 56 55 56 56 58 59 60 60 60 61 61 62 63 64 65 65 65 66 68 69 68 66 64 63 64 65 67 69 73 76 79 80 81 81 83 85 86 88 90 92 94 97 100 105 109 109 107
56 59 60 60 59 58 57 58 59 60 62 63 63 63 64 64 65 66 66 64 62 63 64 64 64 62 61 60 60 60 58 57 56 56 56 57 58 59 58 58 58 59 60 61 62 63 63 64 64 65 66 67 67 67 68 70 71 70 68 67 66 66 67 69 71 74 77 80 83 84 84 85 87 89 91 92 93 94 96 100 104 108 109 108 107
Wind_Direction
292 294 297 299 298 297 297 296 293 290 290 293 293 292 291 289 290 293 290 288 295 306 317 326 331 335 340 342 341 343 345 347 348 348 344 338 334 333 333 333 332 331 332 332 331 331 333 334 335 336 336 335 336 340 340 339 340 342 344 343 337 325 316 311 310 314 317 315 307 303 308 310 306 299 293 291 286 280 274 265 264 267 264 259 257
290 292 296 298 297 296 295 294 292 289 289 292 291 288 288 288 287 288 285 285 294 304 314 322 328 333 338 339 338 339 341 343 345 346 343 337 332 330 330 331 329 329 328 327 328 329 331 332 334 336 335 334 336 340 341 339 340 343 347 347 345 340 331 324 320 319 318 316 305 290 286 290 294 296 293 290 287 283 280 272 267 267 265 261 258
287 290 294 296 296 295 294 293 291 289 289 290 289 286 286 286 285 284 281 283 292 301 311 319 324 331 336 336 335 336 338 341 343 344 342 337 332 328 326 327 328 327 326 326 327 329 330 331 334 336 335 334 337 340 341 341 342 344 346 347 347 347 342 334 328 324 320 317 313 299 284 279 280 285 289 292 292 290 289 284 276 272 269 266 264
287 290 292 293 293 292 291 291 289 289 289 287 285 283 283 284 283 280 277 282 291 298 307 316 321 329 335 333 332 333 336 339 341 342 341 338 332 327 323 323 326 327 328 328 329 330 332 333 334 336 336 336 338 339 339 341 343 344 344 344 345 348 347 340 334 328 325 323 320 316 305 293 285 283 285 289 291 291 292 292 290 287 282 277 273
287 290 291 292 291 289 287 287 286 287 287 285 283 280 280 281 279 276 275 281 289 295 304 314 319 327 333 331 330 331 335 337 339 340 340 337 332 327 322 320 321 325 328 330 331 334 335 334 335 336 338 338 338 338 336 338 341 342 341 339 340 344 346 343 338 333 331 329 326 324 321 315 307 298 292 289 288 287 287 287 288 289 289 287 283
287 290 290 290 288 286 285 284 285 286 285 284 281 278 278 277 276 274 274 281 288 292 300 310 316 326 331 329 327 329 334 336 338 339 338 335 331 326 322 318 316 320 325 329 332 336 336 335 335 337 339 339 337 336 334 336 337 337 334 333 333 337 341 340 338 338 336 333 331 328 325 321 317 310 304 298 294 291 289 287 286 285 285 284 283
289 290 290 289 287 284 283 282 283 284 283 282 279 276 275 274 273 272 274 280 285 289 296 305 313 324 329 326 324 328 333 335 336 337 336 332 328 323 319 317 314 314 319 325 330 334 335 335 336 338 340 339 336 334 334 333 331 330 328 327 328 331 336 336 335 338 338 336 334 332 330 327 322 316 312 307 303 299 296 293 290 288 286 284 283
287 288 291 291 287 284 283 281 282 281 279 277 275 274 274 274 272 272 274 278 282 285 291 301 310 322 327 323 322 327 331 334 335 335 334 330 325 319 316 315 313 312 314 319 325 329 331 333 335 337 339 338 335 334 332 329 328 328 327 326 327 329 331 335 336 339 341 339 336 334 333 330 325 320 316 313 310 306 303 299 296 293 290 287 285
282 284 287 289 286 283 281 280 281 278 273 272 273 275 274 274 272 272 274 275 279 282 288 298 306 318 325 321 321 328 331 333 334 333 332 328 323 317 313 313 313 312 312 315 320 324 327 329 330 331 333 334 335 334 330 328 329 329 329 327 326 327 330 332 333 335 337 337 335 332 329 327 323 317 315 313 311 308 305 301 298 296 293 291 288
279 283 283 285 285 281 277 277 278 274 269 271 278 279 276 273 270 271 272 272 276 280 286 295 302 315 324 319 321 328 330 332 333 332 330 326 321 316 312 312 313 313 313 314 317 320 323 325 326 325 327 331 334 335 331 330 331 331 330 328 325 324 327 329 329 330 331 330 328 325 322 321 320 316 312 310 309 307 303 299 297 295 294 292 290
277 280 281 283 284 282 276 272 271 268 266 274 283 281 275 269 267 270 270 269 273 278 285 292 299 314 322 318 320 326 329 332 331 330 328 325 321 315 312 312 313 312 312 314 316 317 319 322 324 323 323 328 332 334 332 331 330 327 327 326 322 320 322 323 320 321 322 321 319 318 319 319 317 315 310 307 305 304 300 296 294 293 293 292 290
277 278 279 281 283 281 275 268 264 264 267 276 282 277 272 266 265 270 269 267 273 279 285 290 298 313 320 316 318 324 328 331 330 328 327 325 320 314 311 311 312 311 312 313 314 315 316 319 322 322 322 325 329 330 330 329 326 323 321 319 317 314 313 312 313 315 317 317 317 319 320 320 317 314 310 305 301 299 296 293 291 290 290 290 289
278 278 279 279 279 276 268 261 260 262 267 275 277 273 267 263 265 270 270 271 277 281 286 290 298 311 317 314 315 321 327 330 329 326 327 324 319 313 310 311 311 310 310 311 312 312 313 317 319 320 320 323 326 326 326 325 324 322 318 316 316 313 310 312 315 317 319 320 322 322 323 322 321 318 312 306 299 295 292 289 287 286 286 286 286
278 273 275 275 273 270 263 259 261 264 269 273 271 266 261 260 264 269 270 274 279 282 286 291 299 310 315 312 312 317 325 329 328 326 326 324 319 312 309 311 313 312 311 309 309 310 311 313 316 318 318 320 323 323 322 322 323 323 321 319 318 315 314 315 315 316 318 320 321 322 323 324 324 323 317 309 301 294 289 286 284 284 284 284 284
271 262 263 266 265 265 263 262 265 267 270 269 265 261 259 260 263 268 272 277 280 283 286 291 299 309 314 311 310 314 323 328 327 326 325 323 320 315 311 312 313 313 312 308 306 307 308 310 312 314 315 317 319 319 319 319 321 323 323 322 322 318 315 314 312 313 315 317 319 321 323 325 328 328 324 316 307 298 292 287 285 284 284 284 284
266 257 253 257 259 262 262 260 261 264 265 263 259 258 258 260 264 269 274 279 282 283 285 291 300 308 311 311 308 311 321 327 326 324 324 323 322 319 316 316 315 314 312 309 305 304 305 307 308 310 312 313 315 316 316 316 317 319 320 320 322 320 318 315 313 313 314 315 317 320 323 326 329 331 329 323 314 306 299 294 290 288 287 286 285
262 257 253 254 257 259 260 259 256 257 260 259 259 258 258 262 266 270 276 281 282 281 283 291 301 306 309 310 306 307 319 324 323 322 322 322 324 322 319 319 318 317 314 311 307 304 304 304 305 307 309 310 310 312 313 314 314 316 317 318 320 321 320 319 317 316 316 316 318 320 324 327 329 331 331 327 319 312 308 303 299 296 294 292 291
255 259 259 258 259 261 262 261 257 255 256 257 260 260 260 262 266 271 277 282 281 278 283 293 302 305 308 309 304 304 315 322 321 320 320 322 325 325 322 320 318 317 315 312 309 306 305 304 303 304 305 306 307 309 310 310 311 312 314 315 317 319 320 320 319 318 318 318 319 321 324 327 329 331 331 329 322 314 311 310 308 305 303 300 297
249 258 260 260 261 262 262 261 258 257 256 258 261 262 261 262 266 272 277 281 279 276 283 295 301 303 306 307 301 301 312 319 320 319 317 319 324 326 325 324 321 317 313 311 309 308 307 304 303 302 302 304 305 307 307 307 308 309 310 312 315 318 319 319 320 320 319 319 319 321 324 327 329 330 330 328 323 315 311 310 309 308 306 303 302
245 254 258 259 260 259 259 258 257 258 257 257 260 263 262 261 265 271 274 278 277 274 282 294 300 301 304 304 298 299 310 318 319 317 314 316 320 324 326 327 325 320 314 310 309 308 307 305 303 301 301 303 304 304 304 305 305 305 306 309 313 316 318 319 320 320 319 318 318 320 323 326 327 328 329 328 322 316 310 309 308 307 306 306 305
245 252 256 261 262 259 257 257 256 258 259 257 258 260 261 261 265 268 270 275 276 273 280 291 297 298 300 300 295 297 307 316 318 316 312 311 316 320 323 325 326 323 316 311 308 307 306 305 303 301 301 302 303 303 302 301 301 301 305 309 312 315 316 318 319 318 317 316 317 319 321 323 324 325 327 326 321 314 309 308 307 306 304 302 301
244 246 249 255 258 255 255 257 257 259 263 262 260 258 257 259 264 268 269 271 272 273 278 287 292 295 297 296 293 294 304 314 318 315 310 307 312 316 318 321 323 322 317 311 308 306 305 304 303 302 302 301 301 300 299 298 298 301 305 309 312 314 316 318 317 316 315 315 316 317 319 320 320 323 325 325 319 310 304 302 300 297 295 294 293
242 243 243 243 244 247 252 256 256 257 260 261 260 256 254 259 268 272 270 269 271 273 277 284 289 293 295 293 290 293 302 312 316 314 308 304 307 312 314 316 319 320 317 311 308 306 305 304 304 303 302 301 300 298 297 297 299 303 306 309 312 314 316 315 314 313 313 313 314 315 317 317 318 321 324 323 316 306 298 294 293 291 291 292 293
241 241 240 238 239 244 252 257 258 258 259 259 258 256 258 265 271 273 270 267 268 272 277 282 287 291 293 290 287 292 300 307 312 312 307 302 303 308 311 313 315 318 316 311 308 306 305 305 305 304 303 302 301 300 299 300 302 305 307 310 312 312 312 312 311 310 310 311 313 313 314 315 317 320 321 319 313 303 296 292 290 291 292 294 296
243 241 239 239 240 245 253 260 261 260 258 257 257 257 259 265 270 271 269 265 264 269 275 281 285 288 290 287 285 290 297 303 308 310 306 300 300 305 308 310 312 315 315 311 308 306 305 305 305 305 305 304 303 302 302 303 304 306 307 309 309 309 309 309 308 308 309 311 312 312 312 314 317 318 318 315 309 301 294 290 289 289 291 293 294
244 243 241 241 244 248 253 260 263 261 259 259 258 258 260 264 268 270 268 263 263 268 274 279 283 286 288 285 284 288 294 299 305 308 305 297 297 302 306 308 310 313 314 310 307 305 305 305 305 305 305 305 304 303 304 304 305 306 306 306 306 307 307 306 306 306 308 310 310 310 311 314 316 315 313 310 305 299 293 289 287 287 287 289 291
245 243 243 245 248 251 255 259 263 263 261 261 261 261 263 266 268 268 265 262 262 267 273 278 282 286 287 285 284 287 292 297 302 307 303 294 294 300 304 305 307 310 312 308 305 304 304 304 304 304 304 304 304 304 305 306 306 306 306 305 305 305 305 303 303 304 305 306 306 308 311 312 311 309 306 303 299 295 291 288 285 285 285 286 288
251 248 249 252 254 257 259 261 263 262 261 262 263 264 265 266 266 265 263 262 262 267 273 279 284 287 287 285 286 290 293 296 301 304 299 291 292 299 302 303 304 308 310 307 303 303 303 303 302 302 302 303 304 305 306 307 308 307 305 304 304 303 301 300 300 300 300 301 304 307 310 309 307 305 301 298 294 290 288 286 285 285 286 288 292
266 261 257 257 259 260 261 261 261 259 260 262 265 267 267 266 264 263 263 262 263 267 275 281 285 289 289 289 290 292 294 296 300 301 294 288 292 297 299 300 302 306 308 305 301 301 301 301 300 300 301 303 304 306 309 310 309 307 305 302 301 299 298 297 298 297 297 299 302 305 306 305 304 302 299 296 293 290 288 287 288 290 293 297 300
271 271 267 263 262 261 260 258 257 256 258 261 264 266 267 265 263 262 262 261 263 270 277 282 286 291 292 293 294 293 294 296 299 296 289 287 292 295 296 298 300 304 306 303 299 298 299 299 298 299 301 304 305 308 311 312 311 309 305 301 297 295 295 296 296 295 296 299 301 302 302 302 301 300 298 295 293 292 292 292 295 298 302 304 306
256 265 269 267 263 262 260 258 256 255 257 260 261 263 264 265 265 264 263 263 268 275 279 283 287 292 295 296 295 294 294 296 295 291 286 287 292 293 293 295 298 302 304 302 298 295 295 295 295 297 301 304 306 308 309 310 311 309 306 303 298 294 293 294 294 294 295 298 300 302 302 301 300 299 297 296 296 296 297 299 303 306 309 312 314
238 250 261 263 261 260 258 257 257 256 257 259 261 262 263 265 267 267 267 269 275 280 282 284 287 292 296 296 294 293 294 293 291 286 284 288 291 292 292 293 296 299 302 301 297 293 292 292 292 294 298 301 303 304 304 307 308 308 307 305 302 297 294 291 290 290 292 294 299 302 302 300 298 297 297 298 299 301 304 307 310 313 316 319 321
227 234 245 254 257 258 257 258 259 258 259 261 263 263 264 266 267 267 269 274 280 282 282 282 287 293 296 294 291 292 291 289 287 284 284 288 291 292 291 291 294 297 300 301 298 294 292 293 292 292 294 296 298 300 302 305 307 308 306 303 301 298 295 292 290 288 288 291 297 300 299 296 296 297 299 302 305 308 311 314 317 320 322 324 325
224 229 238 247 252 257 261 263 264 264 262 262 263 263 263 264 263 265 272 278 280 280 279 282 288 292 292 289 288 289 287 285 285 284 285 288 291 291 289 289 292 294 298 301 299 295 294 295 295 294 294 296 298 300 303 305 306 305 303 301 299 296 293 292 291 289 288 290 294 296 296 297 299 302 305 309 313 315 317 320 322 323 325 326 325
224 226 236 245 250 257 263 265 268 269 265 259 256 257 258 258 260 267 274 277 275 275 278 283 288 288 286 285 285 286 285 284 284 285 287 289 290 289 287 288 290 292 296 300 299 295 294 295 297 297 297 298 300 302 303 304 304 302 300 298 296 294 292 291 291 290 290 290 292 294 298 302 306 310 313 315 317 318 320 322 322 323 324 324 323
227 227 235 245 252 259 263 265 267 268 268 262 256 254 256 258 262 268 271 270 270 274 279 283 284 283 282 282 283 283 284 284 284 285 287 289 289 286 285 287 288 290 295 299 298 295 294 296 298 300 301 301 302 303 303 303 301 299 297 295 294 293 291 291 291 291 291 291 294 299 304 308 311 314 315 316 316 318 320 321 321 321 322 321 320
231 232 237 244 250 256 261 262 262 262 266 266 260 257 258 261 263 265 265 267 271 276 279 280 279 279 279 279 280 281 283 283 283 285 286 287 286 283 283 284 285 287 292 297 298 295 292 295 299 301 304 304 304 304 304 303 301 299 296 294 293 292 292 292 292 292 294 297 301 306 309 310 312 314 314 314 315 317 319 318 318 319 319 318 317
235 236 238 242 247 252 256 257 257 258 263 267 263 259 259 260 262 264 266 270 273 275 276 275 275 276 276 277 279 281 282 282 282 284 285 286 284 281 281 282 283 284 289 296 300 296 290 293 298 301 303 305 306 307 306 305 302 300 297 295 294 294 294 295 296 297 300 304 308 310 310 311 312 312 312 311 313 316 317 316 316 316 316 315 315
237 238 239 241 244 249 253 254 254 255 260 265 265 263 263 262 263 266 269 271 272 272 273 273 273 274 276 277 279 281 281 280 281 283 284 283 282 280 280 281 281 282 286 295 301 298 290 290 294 297 300 303 306 307 308 308 306 302 298 296 295 296 297 298 299 301 304 308 310 310 310 310 311 311 310 310 312 314 314 314 314 314 313 313 314
238 239 239 239 242 247 252 254 253 254 258 262 265 268 270 268 267 269 270 270 271 272 272 272 273 275 276 277 279 279 279 279 280 282 282 282 280 278 279 280 279 280 285 293 300 298 292 290 291 293 296 301 304 305 306 309 308 304 300 298 298 299 299 300 301 304 306 308 310 310 310 309 310 310 310 310 310 311 312 313 313 312 312 313 314
240 239 240 240 241 244 248 251 252 255 260 263 267 271 273 271 271 271 272 273 273 272 272 273 275 276 276 277 278 278 279 279 280 280 281 279 276 276 278 278 278 281 286 292 296 295 293 292 291 291 293 297 300 301 303 306 307 305 302 301 302 303 303 302 303 305 307 309 310 310 309 309 311 311 310 309 308 309 311 312 312 311 312 313 313
241 239 239 240 242 245 248 252 256 259 261 264 268 272 273 272 271 271 275 277 276 275 275 276 277 277 276 277 278 279 279 279 279 279 279 276 273 274 275 275 276 280 284 289 293 294 293 292 292 291 292 293 295 298 301 304 306 306 304 304 305 306 306 305 304 305 308 311 312 310 308 309 311 310 309 309 307 308 310 311 310 310 311 312 312
242 240 239 241 244 249 251 255 259 261 261 262 266 270 271 270 269 271 276 277 275 275 277 277 277 277 276 277 278 280 280 279 278 279 278 273 271 273 273 272 274 277 282 287 291 293 292 291 291 291 291 292 293 295 298 302 304 305 305 304 306 307 308 307 306 306 310 313 313 310 308 309 310 310 309 308 306 308 309 308 308 309 310 310 311
243 242 241 242 247 252 256 258 258 256 257 260 263 265 266 267 268 272 277 277 274 275 278 277 276 275 276 278 280 281 280 279 278 279 276 272 271 272 272 272 273 276 281 286 289 291 291 289 289 290 290 291 293 295 298 300 302 303 303 303 305 308 309 309 308 307 310 313 312 310 308 307 308 310 309 306 306 307 308 307 308 309 310 311 312
245 245 245 247 250 255 258 260 258 255 255 257 258 260 262 266 269 272 274 273 273 275 277 276 274 274 276 278 279 281 280 279 278 277 274 270 270 271 271 272 274 276 280 284 287 289 289 288 287 289 290 292 294 296 298 300 301 302 302 303 306 308 310 310 309 308 310 311 311 311 309 306 308 310 307 305 306 308 308 308 309 310 310 312 313
247 248 248 250 252 255 258 259 257 255 255 255 256 258 262 267 269 270 269 269 271 274 275 274 274 275 276 277 278 280 280 278 277 277 273 270 270 270 271 272 274 276 279 283 286 287 287 286 287 289 291 293 294 296 297 299 300 301 302 303 306 308 309 309 309 308 309 310 310 310 309 307 307 309 307 306 307 308 309 309 309 309 311 312 313
248 250 251 252 253 254 255 256 256 255 256 256 258 261 263 265 265 266 267 269 271 273 273 273 274 275 276 277 278 279 279 278 277 277 274 271 271 271 271 271 272 275 279 283 285 286 286 286 287 288 290 292 294 295 297 299 300 300 302 304 305 307 309 309 309 308 308 308 308 308 308 307 306 307 306 306 308 308 309 309 309 309 310 312 313
248 251 252 253 254 254 255 255 255 256 256 257 258 259 261 262 263 264 266 269 271 272 271 271 272 273 274 276 276 277 277 277 277 277 275 271 271 271 271 270 271 274 279 282 284 285 286 286 287 288 290 291 293 295 296 298 299 300 302 304 306 308 309 309 308 306 306 305 305 305 306 305 304 304 305 306 307 308 308 308 308 309 310 312 313
247 251 252 253 253 254 254 255 255 256 257 257 256 256 259 262 263 264 266 268 269 269 269 270 271 272 273 274 274 275 275 276 276 277 274 271 269 269 269 269 270 274 279 282 284 285 285 286 287 288 289 291 293 295 296 298 299 300 302 304 306 307 307 306 305 304 303 303 302 303 304 303 302 303 305 306 307 307 307 308 308 309 310 311 312
245 248 249 250 251 252 252 253 253 255 256 256 256 255 257 261 263 264 265 266 266 267 269 270 272 272 272 273 274 275 275 275 276 276 273 271 269 270 270 269 271 275 279 282 283 283 283 284 286 288 291 293 294 295 296 297 298 300 302 304 305 304 303 303 302 301 301 301 301 302 303 303 303 304 305 306 307 308 308 308 308 309 310 311 312
242 245 247 248 250 251 253 253 252 253 253 255 256 256 258 261 263 264 265 265 265 266 268 270 271 271 271 272 273 274 274 274 274 274 273 272 271 271 270 270 272 276 280 281 282 282 282 284 286 289 292 294 295 295 296 296 298 301 304 305 305 304 303 302 301 300 300 300 301 302 303 304 304 305 306 307 308 308 308 308 309 309 310 312 314
Height
10772 10771 10770 10771 10770 10770 10769 10770 10771 10771 10770 10770 10768 10768 10769 10769 10768 10766 10763 10760 10759 10760 10761 10760 10757 10754 10752 10750 10748 10746 10744 10742 10739 10737 10735 10733 10731 10730 10728 10727 10726 10725 10724 10723 10721 10720 10719 10718 10717 10715 10714 10712 10711 10709 10708 10706 10705 10703 10702 10700 10699 10698 10698 10697 10697 10697 10696 10696 10696 10696 10696 10696 10697 10697 10697 10698 10698 10698 10698 10699 10699 10700 10700 10700 10701
10769 10768 10767 10767 10767 10766 10766 10766 10767 10767 10767 10766 10765 10765 10766 10766 10765 10764 10761 10758 10758 10758 10758 10757 10756 10754 10751 10749 10747 10745 10743 10741 10738 10736 10734 10732 10730 10728 10727 10726 10725 10724 10723 10721 10720 10719 10717 10716 10715 10714 10713 10711 10710 10708 10707 10706 10704 10703 10702 10700 10699 10698 10698 10697 10697 10696 10696 10696 10695 10695 10696 10696 10696 10696 10696 10697 10697 10697 10697 10698 10698 10698 10698 10699 10699
10765 10764 10764 10764 10763 10763 10762 10762 10763 10764 10764 10763 10763 10763 10763 10763 10763 10761 10759 10757 10756 10756 10756 10755 10754 10753 10750 10748 10746 10744 10742 10740 10737 10735 10733 10731 10729 10728 10726 10725 10724 10723 10721 10720 10719 10717 10716 10715 10714 10712 10711 10710 10709 10707 10706 10705 10704 10703 10701 10700 10699 10698 10697 10697 10696 10696 10695 10695 10695 10695 10695 10695 10695 10695 10695 10696 10696 10696 10696 10696 10697 10697 10697 10697 10698
10761 10760 10760 10760 10760 10759 10758 10758 10760 10761 10761 10760 10760 10760 10760 10760 10760 10759 10757 10756 10755 10754 10754 10752 10751 10751 10749 10747 10744 10742 10741 10738 10736 10734 10732 10730 10728 10727 10725 10724 10723 10722 10720 10719 10717 10716 10714 10713 10712 10711 10710 10708 10707 10706 10705 10704 10703 10702 10701 10700 10699 10698 10697 10696 10696 10695 10695 10694 10694 10694 10694 10694 10694 10694 10694 10694 10695 10695 10695 10695 10695 10695 10696 10696 10696
10756 10756 10756 10756 10756 10755 10755 10755 10756 10757 10757 10757 10757 10757 10757 10757 10757 10756 10754 10754 10754 10753 10751 10750 10749 10749 10747 10745 10743 10741 10739 10737 10735 10732 10730 10729 10727 10726 10724 10723 10722 10720 10719 10717 10716 10714 10713 10712 10710 10709 10708 10707 10706 10705 10704 10703 10702 10702 10701 10700 10699 10698 10697 10696 10695 10694 10694 10694 10693 10693 10693 10693 10693 10693 10693 10693 10693 10693 10694 10694 10694 10694 10694 10694 10695
10752 10752 10752 10752 10752 10751 10751 10752 10753 10754 10754 10754 10755 10755 10755 10754 10754 10753 10752 10752 10752 10751 10750 10748 10747 10747 10745 10743 10741 10739 10737 10735 10733 10731 10729 10727 10726 10724 10723 10722 10720 10719 10717 10716 10714 10713 10712 10710 10709 10708 10707 10706 10705 10704 10703 10703 10702 10701 10700 10699 10698 10697 10696 10696 10695 10694 10694 10693 10693 10692 10692 10692 10692 10692 10691 10692 10692 10692 10692 10692 10692 10693 10693 10693 10693
10748 10748 10748 10748 10748 10747 10748 10749 10750 10750 10751 10751 10752 10752 10752 10752 10751 10751 10751 10751 10750 10749 10748 10746 10745 10745 10743 10741 10739 10737 10736 10734 10731 10729 10728 10726 10724 10723 10721 10720 10719 10717 10716 10714 10713 10711 10710 10709 10708 10706 10705 10705 10704 10703 10702 10702 10701 10700 10699 10698 10697 10697 10696 10695 10695 10694 10694 10693 10693 10692 10692 10691 10691 10691 10691 10690 10690 10690 10690 10690 10691 10691 10691 10691 10691
10744 10744 10744 10744 10744 10744 10745 10746 10747 10747 10747 10748 10749 10749 10750 10750 10749 10748 10748 10749 10748 10747 10746 10744 10743 10743 10741 10739 10737 10736 10734 10732 10730 10728 10726 10724 10722 10721 10720 10718 10717 10715 10714 10713 10711 10710 10709 10708 10707 10705 10704 10703 10702 10702 10701 10700 10700 10699 10698 10697 10696 10696 10695 10694 10694 10694 10693 10693 10692 10692 10691 10691 10691 10690 10690 10690 10689 10689 10689 10689 10689 10689 10689 10689 10689
10741 10740 10740 10741 10740 10740 10741 10743 10744 10744 10744 10745 10746 10746 10747 10747 10746 10746 10746 10747 10746 10745 10744 10743 10742 10741 10739 10737 10735 10734 10732 10730 10728 10726 10724 10722 10720 10719 10718 10716 10715 10714 10712 10711 10710 10709 10707 10706 10705 10704 10703 10702 10701 10700 10700 10699 10699 10698 10697 10696 10695 10694 10693 10693 10692 10692 10692 10691 10691 10691 10691 10690 10690 10689 10689 10689 10688 10688 10688 10687 10687 10687 10687 10687 10687
10736 10736 10736 10736 10737 10737 10738 10740 10741 10741 10742 10743 10743 10743 10744 10745 10744 10743 10743 10744 10744 10743 10742 10741 10740 10740 10738 10735 10733 10732 10730 10728 10726 10724 10722 10720 10718 10716 10715 10714 10713 10712 10710 10709 10708 10707 10706 10705 10704 10703 10702 10701 10700 10699 10698 10697 10696 10696 10695 10694 10693 10692 10692 10691 10690 10690 10690 10689 10689 10689 10689 10689 10688 10688 10687 10687 10687 10687 10686 10686 10685 10685 10685 10685 10685
10732 10731 10732 10733 10733 10734 10735 10737 10738 10739 10740 10740 10740 10739 10741 10742 10741 10740 10740 10741 10742 10741 10740 10739 10738 10737 10736 10733 10732 10730 10728 10726 10724 10722 10720 10718 10716 10714 10713 10712 10711 10710 10709 10707 10706 10705 10704 10703 10702 10701 10700 10699 10699 10697 10696 10695 10694 10694 10693 10692 10692 10691 10690 10689 10688 10688 10688 10687 10687 10687 10687 10686 10686 10685 10685 10685 10684 10684 10684 10683 10683 10683 10683 10683 10683
10727 10727 10728 10729 10731 10732 10733 10735 10736 10737 10737 10738 10737 10736 10737 10739 10738 10737 10737 10738 10739 10739 10738 10737 10736 10735 10733 10732 10730 10729 10727 10725 10723 10720 10718 10716 10714 10712 10711 10710 10709 10708 10707 10706 10705 10703 10702 10701 10700 10700 10699 10698 10697 10696 10695 10694 10694 10693 10692 10691 10691 10690 10689 10688 10687 10687 10686 10686 10685 10685 10684 10684 10683 10683 10682 10682 10681 10681 10681 10680 10680 10680 10680 10680 10680
10723 10723 10724 10726 10727 10729 10731 10732 10734 10734 10735 10735 10734 10733 10734 10735 10735 10734 10734 10735 10736 10736 10735 10735 10733 10732 10731 10730 10729 10727 10726 10724 10721 10718 10716 10714 10712 10710 10709 10708 10707 10706 10705 10704 10703 10702 10700 10699 10698 10698 10697 10696 10696 10695 10694 10694 10693 10692 10691 10690 10689 10689 10688 10687 10686 10686 10685 10684 10684 10683 10683 10682 10681 10680 10679 10679 10678 10678 10677 10677 10677 10677 10677 10677 10677
10719 10720 10721 10722 10724 10726 10728 10730 10731 10732 10733 10733 10732 10731 10731 10732 10732 10732 10731 10732 10733 10733 10733 10732 10731 10730 10728 10727 10726 10725 10723 10722 10719 10716 10714 10712 10711 10709 10707 10706 10705 10703 10702 10701 10701 10700 10698 10697 10696 10696 10695 10695 10694 10693 10692 10692 10691 10690 10689 10688 10688 10687 10686 10685 10685 10684 10683 10683 10682 10682 10681 10680 10679 10678 10677 10676 10675 10674 10674 10674 10674 10674 10674 10673 10673
10716 10716 10718 10719 10721 10723 10725 10728 10729 10729 10730 10730 10730 10729 10728 10729 10730 10730 10729 10729 10729 10730 10730 10729 10728 10727 10726 10725 10724 10722 10721 10719 10717 10714 10712 10710 10708 10706 10705 10703 10702 10701 10700 10699 10698 10697 10696 10695 10694 10694 10693 10692 10692 10691 10691 10690 10689 10689 10687 10687 10686 10685 10684 10684 10683 10682 10681 10681 10680 10679 10679 10678 10677 10675 10674 10673 10672 10671 10671 10671 10671 10670 10670 10670 10670
10713 10714 10715 10716 10718 10720 10723 10726 10728 10727 10727 10728 10728 10727 10726 10726 10727 10727 10727 10726 10726 10726 10727 10726 10725 10724 10723 10722 10721 10720 10718 10716 10714 10712 10710 10708 10706 10704 10702 10701 10700 10698 10697 10696 10695 10694 10693 10692 10692 10691 10691 10690 10690 10689 10688 10688 10687 10687 10686 10685 10684 10683 10683 10682 10681 10680 10679 10678 10677 10676 10675 10675 10673 10672 10671 10670 10669 10668 10668 10668 10667 10667 10667 10667 10667
10710 10711 10713 10714 10716 10718 10720 10723 10725 10724 10724 10725 10725 10725 10724 10723 10723 10724 10725 10724 10723 10723 10723 10723 10722 10721 10720 10719 10718 10717 10716 10714 10712 10710 10708 10706 10704 10702 10700 10699 10697 10696 10695 10693 10692 10691 10691 10690 10689 10688 10688 10687 10687 10686 10686 10685 10685 10684 10684 10683 10682 10681 10680 10679 10678 10677 10676 10675 10674 10673 10672 10671 10670 10669 10668 10667 10666 10665 10665 10665 10664 10664 10664 10663 10663
10708 10709 10710 10712 10714 10715 10717 10719 10720 10721 10721 10722 10722 10722 10721 10720 10720 10720 10721 10721 10721 10720 10720 10719 10719 10718 10717 10717 10716 10714 10713 10711 10710 10708 10706 10703 10701 10699 10698 10697 10695 10694 10692 10691 10690 10689 10688 10687 10686 10686 10685 10684 10684 10683 10683 10682 10682 10681 10681 10680 10679 10678 10677 10676 10675 10674 10673 10672 10671 10670 10669 10668 10667 10666 10665 10664 10663 10663 10662 10662 10661 10661 10661 10660 10660
10706 10707 10709 10710 10711 10713 10714 10715 10716 10717 10718 10719 10719 10719 10718 10718 10717 10717 10718 10718 10718 10718 10717 10716 10715 10714 10714 10714 10713 10712 10710 10709 10707 10705 10703 10701 10699 10697 10696 10695 10694 10692 10690 10688 10687 10686 10686 10685 10684 10683 10682 10682 10681 10680 10680 10680 10679 10678 10678 10677 10676 10675 10674 10673 10672 10671 10670 10668 10667 10667 10666 10665 10664 10662 10662 10661 10660 10660 10660 10659 10659 10658 10657 10657 10656
10703 10706 10707 10707 10708 10709 10710 10711 10712 10713 10714 10716 10716 10716 10716 10715 10714 10714 10715 10715 10716 10716 10714 10712 10712 10711 10711 10711 10710 10709 10707 10706 10704 10702 10700 10698 10697 10695 10694 10693 10692 10690 10688 10686 10685 10684 10683 10682 10681 10680 10679 10679 10678 10678 10677 10677 10676 10676 10675 10674 10673 10672 10671 10670 10669 10668 10666 10665 10664 10663 10662 10661 10660 10659 10658 10658 10657 10657 10656 10656 10655 10655 10654 10653 10652
10703 10705 10705 10705 10705 10705 10706 10707 10708 10710 10711 10712 10713 10713 10713 10712 10711 10711 10712 10712 10713 10713 10712 10710 10709 10708 10708 10708 10707 10706 10704 10703 10701 10699 10697 10696 10694 10693 10692 10691 10690 10688 10686 10683 10682 10681 10680 10679 10678 10677 10677 10676 10675 10675 10674 10674 10673 10673 10672 10671 10670 10669 10668 10667 10666 10665 10663 10662 10661 10660 10659 10658 10657 10657 10656 10655 10654 10654 10653 10653 10652 10652 10651 10650 10649
10703 10704 10704 10704 10703 10701 10702 10704 10705 10706 10707 10709 10710 10710 10711 10710 10709 10708 10709 10709 10710 10710 10709 10708 10707 10706 10706 10705 10704 10703 10701 10700 10698 10696 10695 10693 10692 10691 10690 10689 10688 10687 10684 10681 10680 10678 10677 10676 10676 10675 10674 10673 10673 10672 10672 10671 10671 10670 10669 10668 10667 10666 10665 10663 10662 10661 10660 10660 10659 10658 10657 10656 10655 10654 10653 10652 10652 10651 10651 10650 10650 10649 10648 10647 10646
10700 10700 10700 10700 10699 10697 10699 10700 10702 10703 10704 10705 10706 10707 10708 10707 10706 10706 10706 10705 10705 10706 10706 10705 10704 10703 10703 10702 10701 10699 10698 10697 10695 10694 10692 10691 10690 10689 10688 10687 10686 10685 10682 10679 10677 10676 10675 10674 10673 10672 10672 10671 10670 10670 10669 10668 10668 10667 10666 10665 10664 10662 10661 10660 10659 10659 10658 10657 10656 10655 10654 10653 10652 10651 10650 10649 10649 10649 10648 10648 10647 10646 10645 10644 10643
10696 10697 10696 10696 10694 10694 10696 10697 10699 10700 10701 10702 10702 10703 10704 10704 10703 10703 10702 10702 10702 10702 10702 10701 10701 10700 10699 10699 10698 10697 10695 10695 10693 10692 10690 10689 10688 10687 10686 10685 10684 10682 10680 10677 10675 10673 10672 10671 10670 10670 10669 10669 10668 10667 10666 10665 10665 10664 10663 10662 10660 10659 10658 10658 10657 10656 10655 10654 10653 10652 10651 10650 10649 10648 10647 10647 10646 10646 10645 10645 10644 10643 10642 10641 10640
10692 10693 10693 10691 10690 10691 10694 10694 10695 10697 10697 10698 10698 10698 10699 10699 10699 10699 10699 10699 10699 10698 10698 10698 10698 10697 10696 10696 10695 10694 10693 10692 10691 10690 10688 10686 10685 10684 10683 10682 10681 10680 10678 10675 10672 10671 10670 10669 10668 10667 10667 10666 10665 10664 10663 10663 10662 10661 10660 10659 10658 10657 10656 10655 10654 10653 10652 10651 10650 10649 10648 10647 10646 10645 10644 10644 10643 10643 10642 10641 10640 10639 10638 10637 10636
10686 10687 10688 10686 10686 10688 10690 10690 10691 10692 10693 10693 10693 10694 10695 10695 10695 10694 10694 10695 10695 10695 10695 10695 10695 10694 10694 10693 10692 10692 10691 10690 10688 10687 10685 10684 10682 10682 10681 10680 10679 10678 10675 10673 10670 10668 10667 10667 10665 10664 10664 10663 10662 10661 10661 10660 10659 10658 10657 10656 10655 10654 10653 10652 10651 10650 10649 10648 10647 10646 10645 10644 10643 10642 10641 10641 10640 10640 10639 10638 10637 10636 10635 10633 10632
10680 10681 10681 10682 10682 10684 10685 10686 10687 10688 10688 10689 10689 10689 10690 10690 10690 10690 10690 10690 10691 10691 10691 10691 10692 10691 10690 10690 10689 10688 10688 10687 10685 10684 10682 10681 10680 10679 10678 10677 10676 10675 10673 10670 10667 10666 10665 10664 10663 10662 10661 10660 10659 10658 10657 10656 10655 10654 10653 10653 10652 10651 10650 10649 10648 10647 10646 10646 10644 10643 10642 10641 10640 10639 10639 10638 10637 10636 10635 10635 10634 10632 10631 10630 10628
10673 10674 10675 10676 10677 10678 10680 10681 10682 10683 10683 10684 10684 10684 10685 10685 10685 10685 10685 10686 10686 10687 10687 10688 10688 10687 10687 10686 10685 10685 10684 10683 10682 10681 10679 10678 10677 10676 10675 10674 10674 10672 10671 10668 10664 10663 10662 10661 10660 10659 10658 10657 10656 10655 10654 10653 10652 10651 10650 10649 10648 10648 10647 10646 10645 10644 10643 10643 10642 10641 10639 10638 10637 10636 10636 10635 10634 10633 10632 10631 10630 10629 10627 10626 10624
10668 10669 10670 10670 10671 10672 10674 10675 10676 10677 10678 10679 10679 10679 10680 10680 10680 10680 10681 10682 10683 10683 10684 10684 10683 10683 10683 10682 10682 10681 10680 10680 10679 10677 10676 10675 10674 10673 10672 10671 10671 10670 10668 10665 10661 10659 10659 10658 10656 10655 10655 10654 10653 10652 10651 10649 10648 10647 10646 10646 10645 10645 10644 10643 10642 10641 10640 10639 10638 10637 10636 10635 10634 10633 10632 10631 10630 10629 10628 10627 10626 10625 10623 10621 10618
10665 10662 10662 10664 10665 10666 10668 10669 10671 10671 10672 10673 10674 10675 10675 10675 10675 10676 10677 10678 10679 10680 10680 10680 10679 10679 10679 10679 10678 10676 10676 10676 10675 10674 10672 10672 10671 10670 10669 10668 10668 10667 10665 10662 10659 10656 10656 10655 10653 10652 10651 10650 10649 10648 10647 10646 10644 10644 10643 10642 10642 10642 10641 10640 10639 10638 10637 10636 10635 10634 10633 10632 10631 10630 10629 10627 10626 10625 10624 10623 10621 10619 10617 10615 10613
10662 10659 10656 10656 10658 10659 10661 10663 10664 10665 10666 10667 10669 10670 10670 10670 10671 10672 10672 10674 10675 10676 10676 10675 10675 10675 10675 10674 10673 10672 10671 10671 10671 10670 10669 10668 10667 10666 10665 10665 10664 10663 10662 10659 10656 10653 10653 10652 10650 10648 10647 10647 10646 10645 10644 10642 10641 10640 10640 10639 10639 10638 10637 10637 10636 10635 10634 10633 10631 10630 10629 10628 10626 10625 10624 10623 10621 10620 10619 10617 10615 10613 10611 10609 10606
10656 10657 10653 10650 10652 10654 10655 10657 10658 10660 10661 10662 10663 10664 10665 10665 10666 10667 10668 10669 10671 10671 10671 10671 10671 10670 10670 10670 10668 10668 10667 10666 10666 10666 10665 10664 10663 10662 10662 10661 10660 10659 10658 10656 10653 10650 10649 10649 10648 10646 10645 10644 10643 10642 10641 10640 10638 10637 10636 10636 10635 10634 10634 10633 10632 10631 10630 10629 10627 10626 10624 10623 10622 10620 10619 10618 10616 10615 10613 10611 10610 10607 10605 10603 10600
10646 10650 10649 10646 10646 10648 10650 10652 10653 10655 10656 10657 10658 10659 10660 10660 10661 10663 10664 10665 10666 10666 10666 10666 10666 10666 10666 10665 10664 10663 10663 10662 10662 10662 10661 10659 10659 10658 10658 10657 10656 10656 10655 10653 10650 10647 10645 10645 10645 10643 10642 10641 10640 10639 10638 10636 10635 10634 10633 10632 10631 10631 10630 10629 10628 10627 10626 10625 10623 10621 10620 10618 10617 10615 10614 10612 10611 10609 10607 10605 10603 10601 10599 10596 10594
10640 10643 10643 10641 10641 10644 10645 10646 10648 10649 10651 10652 10653 10654 10655 10656 10657 10658 10659 10660 10661 10661 10661 10661 10661 10661 10661 10660 10659 10659 10658 10657 10657 10657 10656 10655 10654 10654 10654 10653 10652 10652 10651 10649 10646 10643 10641 10641 10641 10639 10638 10637 10636 10635 10634 10632 10631 10630 10629 10628 10628 10627 10626 10625 10624 10623 10622 10620 10618 10617 10615 10614 10612 10611 10609 10607 10605 10603 10601 10599 10597 10595 10592 10590 10587
10636 10638 10638 10636 10637 10639 10640 10641 10643 10644 10646 10647 10647 10649 10650 10651 10652 10653 10654 10655 10656 10656 10656 10656 10656 10656 10656 10655 10655 10654 10654 10653 10652 10652 10651 10650 10649 10649 10649 10648 10648 10648 10647 10645 10643 10640 10638 10637 10636 10635 10634 10633 10631 10630 10629 10629 10628 10627 10626 10625 10624 10623 10622 10621 10620 10618 10617 10615 10614 10612 10611 10609 10607 10605 10603 10601 10599 10597 10595 10592 10590 10588 10586 10583 10580
10633 10633 10632 10631 10632 10635 10636 10637 10639 10640 10641 10641 10642 10643 10644 10646 10647 10648 10649 10650 10650 10651 10651 10651 10651 10651 10651 10650 10650 10650 10650 10650 10648 10647 10647 10646 10645 10644 10643 10643 10643 10643 10643 10642 10640 10637 10635 10633 10632 10632 10631 10629 10628 10627 10626 10625 10624 10623 10622 10621 10620 10619 10618 10616 10615 10614 10612 10611 10609 10607 10605 10603 10601 10599 10597 10594 10592 10590 10588 10586 10583 10581 10579 10577 10574
10629 10629 10627 10626 10629 10631 10632 10634 10635 10635 10636 10636 10637 10638 10639 10640 10641 10643 10644 10645 10645 10645 10646 10646 10646 10646 10646 10645 10645 10646 10646 10646 10645 10643 10642 10641 10641 10640 10639 10638 10638 10638 10639 10638 10636 10635 10633 10630 10629 10628 10627 10626 10625 10624 10623 10622 10621 10620 10619 10617 10616 10615 10614 10613 10611 10609 10608 10606 10604 10602 10599 10597 10595 10593 10590 10587 10585 10584 10581 10579 10577 10574 10572 10570 10567
10624 10623 10621 10621 10625 10627 10628 10629 10629 10630 10632 10633 10633 10634 10634 10635 10636 10638 10639 10639 10639 10640 10640 10641 10641 10641 10641 10641 10641 10641 10641 10641 10641 10639 10638 10637 10636 10635 10634 10634 10633 10633 10634 10634 10633 10632 10631 10628 10626 10625 10623 10622 10621 10620 10619 10618 10617 10616 10615 10614 10613 10611 10610 10609 10607 10605 10603 10601 10599 10596 10593 10591 10589 10586 10583 10580 10578 10576 10575 10572 10570 10568 10566 10563 10561
10620 10618 10615 10616 10620 10622 10622 10623 10624 10625 10627 10629 10629 10630 10630 10631 10632 10633 10634 10634 10634 10635 10635 10636 10636 10636 10637 10637 10637 10637 10637 10637 10636 10635 10633 10632 10631 10631 10629 10629 10628 10628 10629 10630 10630 10628 10627 10626 10624 10622 10620 10618 10616 10615 10615 10614 10613 10611 10610 10610 10609 10607 10606 10604 10602 10599 10597 10595 10593 10590 10587 10585 10583 10580 10576 10573 10570 10569 10567 10565 10563 10560 10558 10556 10553
10614 10612 10610 10611 10614 10615 10616 10617 10618 10620 10621 10624 10625 10626 10626 10627 10628 10628 10629 10628 10629 10630 10630 10631 10631 10632 10632 10632 10632 10632 10632 10632 10632 10630 10629 10628 10627 10625 10624 10624 10624 10622 10623 10624 10624 10624 10622 10621 10620 10618 10616 10614 10613 10611 10610 10609 10609 10607 10606 10604 10604 10603 10601 10598 10596 10594 10592 10589 10587 10584 10581 10579 10576 10573 10570 10566 10562 10561 10560 10558 10555 10553 10551 10549 10545
10608 10607 10606 10607 10608 10608 10610 10611 10613 10615 10617 10618 10621 10622 10622 10623 10623 10624 10624 10624 10624 10625 10625 10625 10626 10626 10626 10626 10627 10627 10627 10627 10627 10626 10624 10624 10623 10621 10620 10619 10618 10617 10617 10617 10617 10617 10616 10615 10614 10613 10612 10610 10609 10607 10605 10604 10603 10602 10601 10599 10599 10598 10594 10591 10589 10587 10586 10583 10581 10578 10575 10572 10570 10567 10563 10559 10555 10553 10552 10550 10547 10545 10542 10539 10536
10602 10603 10602 10602 10601 10601 10604 10607 10609 10611 10613 10614 10616 10617 10617 10618 10619 10619 10619 10619 10619 10619 10619 10620 10621 10621 10620 10621 10622 10622 10622 10621 10621 10621 10620 10620 10619 10617 10616 10614 10613 10612 10612 10611 10610 10610 10609 10609 10608 10607 10606 10605 10604 10602 10600 10599 10597 10596 10595 10593 10592 10591 10588 10584 10581 10579 10579 10577 10574 10571 10567 10564 10563 10560 10556 10552 10548 10545 10544 10541 10539 10536 10533 10530 10527
10595 10598 10598 10597 10596 10596 10599 10604 10606 10607 10608 10609 10611 10612 10612 10613 10613 10613 10613 10614 10614 10614 10614 10614 10615 10615 10615 10616 10616 10616 10616 10615 10615 10615 10615 10614 10614 10613 10611 10610 10608 10608 10607 10606 10605 10604 10603 10602 10602 10601 10600 10599 10598 10597 10595 10594 10592 10590 10589 10587 10585 10584 10582 10578 10574 10571 10571 10570 10568 10565 10560 10556 10556 10553 10549 10545 10541 10538 10536 10533 10530 10528 10526 10524 10521
10590 10592 10592 10593 10592 10592 10594 10598 10600 10601 10603 10604 10606 10606 10607 10608 10607 10607 10607 10608 10608 10608 10608 10609 10609 10610 10610 10610 10610 10610 10610 10609 10610 10610 10609 10609 10608 10608 10606 10605 10604 10604 10603 10601 10600 10599 10598 10597 10596 10595 10594 10593 10592 10590 10589 10588 10587 10585 10583 10581 10578 10577 10575 10572 10567 10562 10561 10562 10561 10558 10553 10548 10547 10547 10542 10537 10534 10532 10529 10524 10521 10518 10516 10514 10511
10584 10585 10587 10588 10588 10588 10589 10591 10593 10595 10597 10599 10599 10600 10601 10602 10602 10601 10600 10601 10602 10602 10602 10603 10604 10604 10605 10604 10604 10604 10603 10603 10604 10604 10603 10602 10602 10602 10601 10599 10599 10598 10597 10596 10594 10593 10592 10591 10590 10588 10587 10586 10586 10584 10582 10581 10580 10578 10576 10574 10572 10570 10567 10564 10560 10554 10552 10552 10552 10551 10547 10540 10537 10539 10536 10530 10526 10524 10520 10515 10511 10507 10504 10500 10497
10578 10579 10582 10583 10583 10584 10584 10585 10587 10589 10591 10592 10593 10593 10594 10595 10596 10595 10594 10595 10595 10595 10596 10597 10597 10598 10598 10598 10598 10598 10597 10597 10597 10597 10597 10596 10596 10596 10595 10594 10592 10592 10591 10589 10588 10587 10585 10585 10583 10582 10580 10579 10579 10578 10575 10574 10572 10570 10568 10567 10565 10562 10559 10555 10551 10547 10543 10542 10541 10542 10540 10533 10528 10530 10528 10521 10517 10514 10509 10504 10499 10495 10490 10486 10482
10573 10573 10576 10578 10578 10579 10580 10580 10581 10583 10584 10586 10586 10586 10587 10588 10589 10589 10588 10588 10589 10589 10589 10590 10590 10591 10591 10591 10591 10591 10591 10591 10590 10591 10591 10590 10590 10589 10589 10588 10586 10585 10584 10582 10581 10580 10579 10579 10577 10575 10574 10573 10571 10570 10568 10566 10564 10562 10560 10559 10557 10554 10551 10546 10542 10538 10535 10533 10530 10531 10532 10526 10520 10519 10517 10512 10508 10504 10498 10494 10489 10483 10479 10474 10470
10567 10567 10570 10571 10572 10574 10574 10574 10575 10576 10577 10579 10580 10580 10580 10581 10582 10582 10581 10581 10582 10583 10583 10582 10583 10584 10584 10584 10584 10584 10584 10584 10584 10584 10584 10584 10584 10583 10582 10581 10580 10578 10577 10575 10575 10574 10573 10573 10572 10569 10567 10566 10564 10563 10561 10559 10557 10555 10552 10551 10548 10545 10541 10538 10534 10531 10528 10525 10522 10521 10522 10520 10513 10510 10509 10504 10501 10497 10491 10485 10479 10474 10470 10465 10461
10563 10563 10563 10564 10565 10567 10568 10568 10569 10570 10570 10571 10573 10574 10573 10573 10574 10575 10574 10574 10575 10576 10576 10575 10576 10577 10578 10577 10578 10578 10578 10578 10577 10577 10577 10577 10577 10576 10575 10574 10572 10571 10569 10568 10568 10567 10566 10565 10565 10563 10561 10560 10558 10556 10553 10551 10549 10547 10544 10542 10539 10536 10533 10530 10527 10524 10520 10518 10515 10513 10514 10513 10507 10504 10502 10499 10495 10491 10485 10478 10472 10466 10461 10456 10451
10559 10557 10557 10558 10559 10560 10560 10561 10562 10563 10563 10564 10566 10567 10566 10565 10566 10567 10567 10568 10568 10568 10568 10568 10568 10569 10571 10571 10570 10570 10570 10571 10570 10570 10569 10569 10569 10568 10567 10566 10565 10564 10562 10561 10560 10560 10559 10557 10556 10555 10554 10553 10551 10549 10547 10545 10543 10540 10537 10534 10530 10527 10525 10523 10520 10517 10514 10510 10507 10505 10505 10504 10499 10496 10494 10492 10489 10484 10477 10471 10465 10460 10454 10448 10440
10552 10551 10551 10552 10553 10553 10553 10553 10554 10555 10556 10556 10558 10559 10559 10558 10558 10558 10559 10561 10561 10560 10560 10560 10560 10561 10563 10563 10563 10562 10563 10563 10563 10562 10561 10561 10561 10560 10560 10559 10558 10556 10555 10554 10552 10552 10551 10549 10548 10547 10546 10544 10543 10541 10540 10538 10536 10533 10529 10525 10522 10519 10517 10515 10513 10511 10508 10503 10498 10495 10494 10492 10489 10485 10482 10480 10479 10476 10469 10462 10457 10452 10445 10437 10428